Header for Extended Forecast Station List Page

Search by: ID | Name | Date | Parm | Value | Avg | % Avg
Sort by: ID | Name | Date | Parm | Value | Avg | % Avg

Enter search or view all records.

Click on id for station plot
#IDNameDateParmValueAvg% Avg
0ABOM8CLARK FORK-ABOVE MISSOULA10-21-2021DISCHARGE (KAF)28032586
1AFRI1SNAKE-AMERICAN FALLS RESERVOIR10-21-2021INFLOW (KAF)1110119593
2ALFW1PEND OREILLE-ALBENI FALLS DAM10-21-2021INFLOW (KAF)2779383472
3ALPW4SNAKE-NEAR ALPINE10-21-2021DISCHARGE (KAF)33639884
4ANAW1SNAKE-NEAR ANATONE10-21-2021DISCHARGE (KAF)3624444082
5ANTI1HENRYS FORK-AT ST. ANTHONY10-21-2021DISCHARGE (KAF)31636985
6ARAI1SF BOISE-ANDERSON RANCH DAM10-21-2021INFLOW (KAF)597084
7ARDW1ENTIAT-NEAR ARDENVOIR10-21-2021DISCHARGE (KAF)2625104
8BELM8CLARK FORK-BELOW MISSOULA10-21-2021DISCHARGE (KAF)40353975
9BERO3MALHEUR-AGENCY VALLEY DAM10-21-2021INFLOW (KAF)101662
10BFEI1KOOTENAI-AT BONNERS FERRY10-21-2021STAGE (FT)MMM
11BFTI1SNAKE-NEAR BLACKFOOT10-21-2021DISCHARGE (KAF)45859976
12BIGI1BOISE-AT GLENWOOD BRIDGE10-21-2021DISCHARGE (KAF)536383
13BITM8BITTERROOT-NEAR MISSOULA10-21-2021DISCHARGE (KAF)12320759
14BONM8BLACKFOOT-NEAR BONNER10-21-2021DISCHARGE (KAF)10513379
15BONO3COLUMBIA-BONNEVILLE DAM10-21-2021INFLOW (KAF)294403481785
16BRNI1SNAKE-BROWNLEE DAM10-21-2021INFLOW (KAF)2800286898
17BUDW1BUMPING-BUMPING LAKE DAM10-21-2021INFLOW (KAF)3939100
18BULO3BULLY CREEK-BULLY CREEK DAM10-21-2021INFLOW (KAF)162908
19CABI1CLARK FORK-CABINET GORGE DAM10-21-2021INFLOW (KAF)2516344073
20CFMM8FLATHEAD-AT COLUMBIA FALLS10-21-2021DISCHARGE (KAF)88393495
21CHDW1CHELAN-LAKE CHELAN DAM10-21-2021INFLOW (KAF)225192117
22CHEI1FALL RIVER-NEAR CHESTER10-21-2021DISCHARGE (KAF)10511889
23CHJW1COLUMBIA-CHIEF JOSEPH DAM10-21-2021INFLOW (KAF)205662295690
24CIBW1COLUMBIA-AT INTL BOUNDARY10-21-2021DISCHARGE (KAF)177152022688
25CLFW1NACHES-NEAR CLIFFDEL10-21-2021DISCHARGE (KAF)8811477
26CLUW1CLE ELUM-CLE ELUM LAKE10-21-2021INFLOW (KAF)134117114
27COEI1COEUR D ALENE-COEUR D ALENE LAKE10-21-2021INFLOW (KAF)34776245
28CSDI1NF PAYETTE-CASCADE DAM10-21-2021INFLOW (KAF)9287106
29DEDI1DEADWOOD-NEAR LOWMAN10-21-2021INFLOW (KAF)131774
30DLGM8CLARK FORK-AT DEER LODGE10-21-2021DISCHARGE (KAF)495196
31DRMM8CLARK FORK-NR DRUMMOND10-21-2021DISCHARGE (KAF)11612593
32DWRI1NF CLEARWATER-DWORSHAK DAM10-21-2021INFLOW (KAF)30655555
33EASW1YAKIMA-AT EASTON10-21-2021DISCHARGE (KAF)677293
34EMMI1PAYETTE-NEAR EMMETT10-21-2021DISCHARGE (KAF)25627593
35FCFM8NF FLATHEAD-NEAR COLUMBIA FALLS10-21-2021DISCHARGE (KAF)13118571
36GCDW1COLUMBIA-GRAND COULEE DAM10-21-2021INFLOW (KAF)185152128287
37GIBO3UMATILLA-NEAR GIBBON10-21-2021DISCHARGE (KAF)3534101
38HALI1BIG WOOD-AT HAILEY10-21-2021DISCHARGE (KAF)263867
39HEII1SNAKE-NEAR HEISE10-21-2021DISCHARGE (KAF)29540573
40HHWM8SF FLATHEAD-HUNGRY HORSE DAM10-21-2021INFLOW (KAF)14223161
41HODO3HOOD-NEAR TUCKER BRIDGE10-21-2021DISCHARGE (KAF)250212118
42HOPI1PEND OREILLE-PEND OREILLE LAKE NR HOPE10-21-2021LAKE ELEVATION (FT)MMM
43HOTI1BRUNEAU-NEAR HOT SPRINGS10-21-2021DISCHARGE (KAF)162468
44HWRI1BIG LOST-AT HOWELL RANCH NEAR CHILLY10-21-2021DISCHARGE (KAF)122059
45IHDW1SNAKE-ICE HARBOR DAM10-21-2021INFLOW (KAF)4514592376
46IPDI1HENRYS FORK-ISLAND PARK DAM10-21-2021INFLOW (KAF)8210777
47JDAO3COLUMBIA-JOHN DAY DAM10-21-2021INFLOW (KAF)278963273285
48JKSW4SNAKE-NEAR JACKSON10-21-2021DISCHARGE (KAF)27632984
49JLKW4SNAKE-JACKSON LAKE AT DAM10-21-2021INFLOW (KAF)8211273
50KADW1KACHESS-KACHESS DAM10-21-2021INFLOW (KAF)5250104
51KEDW1YAKIMA-KEECHELUS LAKE10-21-2021INFLOW (KAF)535596
52KERM8FLATHEAD-SELI’Š KSANKA QLISPE’ DAM10-21-2021INFLOW (KAF)961132273
53KIOW1YAKIMA-AT KIONA10-21-2021DISCHARGE (KAF)58170682
54LAUW1KETTLE-AT LAURIER10-21-2021DISCHARGE (KAF)9312177
55LEOI1KOOTENAI-AT LEONIA10-21-2021DISCHARGE (KAF)2000265675
56LGDW1SNAKE-LOWER GRANITE DAM10-21-2021INFLOW (KAF)4462580777
57LGSW1SNAKE-LITTLE GOOSE DAM10-21-2021INFLOW (KAF)4462584976
58LLKW1SPOKANE-AT LONGLAKE10-21-2021INFLOW (KAF)629115854
59LMNW1SNAKE-LOWER MONUMENTAL DAM10-21-2021INFLOW (KAF)4514589477
60LUCI1BOISE-LUCKY PEAK DAM10-21-2021INFLOW (KAF)508261
61LWRI1LITTLE WOOD-LITTLE WOOD DAM10-21-2021INFLOW (KAF)111390
62LYDM8KOOTENAI-LIBBY DAM10-21-2021INFLOW (KAF)77892085
63MACI1BIG LOST-MACKAY RESERVOIR NEAR MACKAY10-21-2021INFLOW (KAF)214152
64MAGI1BIG WOOD-MAGIC DAM10-21-2021INFLOW (KAF)122158
65MCDW1COLUMBIA-MCNARY DAM10-21-2021INFLOW (KAF)266573165184
66MILI1SNAKE-AT MILNER10-21-2021DISCHARGE (KAF)M55M
67MODO3DESCHUTES-AT MOODY NR BIGGS10-21-2021DISCHARGE (KAF)13851332104
68MONO3NF JOHN DAY-AT MONUMENT10-21-2021DISCHARGE (KAF)929795
69MYKO3MCKAY CREEK-NEAR PILOT ROCK10-21-2021DISCHARGE (KAF)2518135
70NACW1NACHES-NEAR NACHES10-21-2021DISCHARGE (KAF)6614645
71NOXM8CLARK FORK-NOXON RAPIDS DAM10-21-2021INFLOW (KAF)2293306875
72ORFI1CLEARWATER-AT OROFINO10-21-2021DISCHARGE (KAF)39270156
73OWYO3OWYHEE-OWYHEE DAM10-21-2021INFLOW (KAF)688877
74PARI1BOISE-NEAR PARMA10-21-2021DISCHARGE (KAF)19820995
75PARW1YAKIMA-NEAR PARKER10-21-2021DISCHARGE (KAF)40448583
76PATW1METHOW-NEAR PATEROS10-21-2021DISCHARGE (KAF)8110477
77PDTO3UMATILLA-AT PENDLETON10-21-2021DISCHARGE (KAF)9680121
78PESW1WENATCHEE-AT PESHASTIN10-21-2021DISCHARGE (KAF)30832695
79PIHI1PORTNEUF-AT POCATELLO10-21-2021DISCHARGE (KAF)374778
80PITW1KLICKITAT-NEAR PITT10-21-2021DISCHARGE (KAF)289284102
81PLDI1SF SNAKE-PALISADES DAM10-21-2021INFLOW (KAF)52261085
82PRTI1PRIEST-NEAR PRIEST RIVER10-21-2021DISCHARGE (KAF)16524567
83PRWW1COLUMBIA-PRIEST RAPIDS DAM10-21-2021INFLOW (KAF)215032466387
84RCCM8ROCK CREEK-NEAR CLINTON10-21-2021DISCHARGE (KAF)464699
85REXI1HENRYS FORK-AT REXBURG10-21-2021DISCHARGE (KAF)39642693
86RIDI1WILLOW CREEK-RIRIE DAM10-21-2021INFLOW (KAF)101186
87RILW1TIETON-RIMROCK LAKE NEAR RIMROCK10-21-2021INFLOW (KAF)427159
88RRHW1COLUMBIA-ROCKY REACH DAM10-21-2021INFLOW (KAF)212112394889
89SATI1ST MARIES-NEAR SANTA10-21-2021DISCHARGE (KAF)153939
90SERO3JOHN DAY-AT SERVICE CK10-21-2021DISCHARGE (KAF)17517799
91SHYI1SNAKE-NEAR SHELLEY10-21-2021DISCHARGE (KAF)52170474
92SIFI1SNAKE-AB EAGLE ROCK NR IDAHO FALLS10-21-2021DISCHARGE (KAF)52168676
93SJMI1ST JOE-AT ST MARIES10-21-2021STAGE (FT)MMM
94SNAI1SNAKE-AT BLACKFOOT10-21-2021DISCHARGE (KAF)43961072
95SPDI1CLEARWATER-AT SPALDING10-21-2021DISCHARGE (KAF)838130564
96SPOW1SPOKANE-AT SPOKANE10-21-2021DISCHARGE (KAF)44395946
97SRGM8CLARK FORK-AT ST REGIS10-21-2021DISCHARGE (KAF)51170872
98STRM8ST. REGIS-NEAR ST. REGIS10-21-2021DISCHARGE (KAF)173352
99SWAI1SNAKE-BELOW SWAN FALLS10-21-2021DISCHARGE (KAF)1788185596
100TCHW1WALLA WALLA-NEAR TOUCHET10-21-2021DISCHARGE (KAF)10012282
101TDAO3COLUMBIA-THE DALLES DAM10-21-2021INFLOW (KAF)286253343386
102TEAI1TETON-NEAR ST. ANTHONY10-21-2021DISCHARGE (KAF)9010189
103TNAW1TEANAWAY-BELOW FORKS10-21-2021DISCHARGE (KAF)264164
104TONW1OKANOGAN-NEAR TONASKET10-21-2021DISCHARGE (KAF)25129585
105TRYO3GRANDE RONDE-TROY10-21-2021DISCHARGE (KAF)23029777
106UMAO3UMATILLA-NEAR UMATILLA10-21-2021DISCHARGE (KAF)14289159
107UMTW1YAKIMA-AT UMTANUM10-21-2021DISCHARGE (KAF)22028078
108UNDW1WHITE SALMON-NEAR UNDERWOOD10-21-2021DISCHARGE (KAF)233230101
109WANW1COLUMBIA-WANAPUM DAM10-21-2021INFLOW (KAF)215032459187
110WEII1SNAKE-AT WEISER10-21-2021DISCHARGE (KAF)2598272995
111WELW1COLUMBIA-WELLS DAM10-21-2021INFLOW (KAF)208912355689
112WGCM8MF FLATHEAD-NEAR WEST GLACIER10-21-2021DISCHARGE (KAF)5316332
113WHBI1SALMON-AT WHITEBIRD10-21-2021DISCHARGE (KAF)780102776
114WRMO3MALHEUR-WARM SPRINGS DAM10-21-2021INFLOW (KAF)172084
115WSRI1WEISER-NEAR WEISER10-21-2021DISCHARGE (KAF)518063